Powrót do katalogu

SL-12 R/B

AUX MOTOR

AktywnyLEO
NORAD 15774·ROCKET BODY·🇷🇺 Russia

Wystrzelony May 30, 1985 z Baikonur Cosmodrome

Loading…

Następne Przeloty (najbliższe 24 godziny)

TLE

ŚwieżeSource: Space-Track

Epoka: Sep 14, 2026, 11:18 UTC

1 15774U 85042F   26257.47106304  .00000066  00000-0  63773-4 0  9992
2 15774  66.5869 169.8888 0032310 253.8674 158.6276 14.25410257145813

Śledź SL-12 R/B w czasie rzeczywistym z AllMySat

Download on the App Store